CHIP238 Weather Reports


time (UTC)temp
C
wind
direction
speed
KPH
gust
KPH
rain 1hr
cm
rain 24hr
cm
rain mn
cm
humidity
%
barometer
mb
20260504040025 5 277 0.0 0.0 0.00 0.00 0.00 81 1011.3
20260504034506 5 277 0.0 0.0 0.00 0.00 0.00 80 1011.1
20260504033046 5 277 0.0 0.0 0.00 0.00 0.00 79 1011.0
20260504031532 6 277 0.0 0.0 0.00 0.00 0.00 79 1010.9
20260504030018 6 277 0.0 0.0 0.00 0.00 0.00 78 1010.8
20260504024511 6 277 0.0 0.0 0.00 0.00 0.00 77 1010.8
20260504023045 7 277 0.0 0.0 0.00 0.00 0.00 75 1010.8
20260504021534 7 277 0.0 0.0 0.00 0.00 0.00 74 1010.9
20260504020017 7 277 0.0 0.0 0.00 0.00 0.00 72 1010.9
20260504014535 7 277 0.0 0.0 0.00 0.00 0.00 71 1010.8
20260504013021 8 277 0.0 0.0 0.00 0.00 0.00 68 1010.8
20260504011504 9 277 0.0 0.0 0.00 0.00 0.00 65 1010.7
20260504010048 10 277 0.0 0.0 0.00 0.00 0.00 62 1010.6
20260504004530 11 277 0.0 0.0 0.00 0.00 0.00 57 1010.4
20260504003019 12 277 1.6 0.0 0.00 0.00 0.00 53 1010.1
20260504001504 13 277 3.2 0.0 0.00 0.00 0.00 47 1009.9
20260504000046 14 292 3.2 0.0 0.00 0.00 0.00 41 1009.8
20260503234530 15 232 8.0 0.0 0.00 0.00 0.00 38 1009.6
20260503233017 15 298 9.7 0.0 0.00 0.00 0.00 38 1009.6
20260503231602 15 267 11.3 0.0 0.00 0.00 0.00 36 1009.3
20260503224536 16 269 6.4 0.0 0.00 0.00 0.00 37 1009.2
20260503223022 15 279 8.0 0.0 0.00 0.00 0.00 36 1009.3
20260503221510 16 238 12.9 0.0 0.00 0.00 0.00 35 1009.3
20260503220020 16 271 9.7 0.0 0.00 0.00 0.00 36 1009.3
20260503214533 15 306 9.7 0.0 0.00 0.00 0.00 36 1009.2
20260503213100 15 267 11.3 0.0 0.00 0.00 0.00 37 1009.1
20260503211604 15 355 6.4 0.0 0.00 0.00 0.00 37 1009.0
20260503210059 15 337 9.7 0.0 0.00 0.00 0.00 35 1009.0
20260503210001 16 259 9.7 0.0 0.00 0.00 0.00 36 1009.0
20260503204544 16 281 8.0 0.0 0.00 0.00 0.00 35 1009.0
20260503203027 16 266 12.9 0.0 0.00 0.00 0.00 35 1009.1
20260503201641 16 306 8.0 0.0 0.00 0.00 0.00 36 1009.2